Flag for USA

Past Weather in Utah Field House of Natural History, Utah, USA — Yesterday and Last 2 Weeks

Now
62 °F

Sunny.


Feels Like: 62 °F
Forecast: 69 / 36 °F
Wind: 23 mph from South

Location: Rock Springs Weather Reporting Station

Current Time: Oct 17, 2019 at 12:38:25 pm

Latest Report: Oct 17, 2019 at 11:54 am


Visibility: 10 mi

Pressure: 29.66 "Hg

Humidity: 14%

Dew Point: 13 °F

Location of Utah Field House of Natural HistoryLocation

Past Weather in Utah Field House of Natural History — Graph

°F

Utah Field House of Natural History Temperature Yesterday

Maximum temperature yesterday: 67 °F (at 2:54 pm)
Minimum temperature yesterday: 38 °F (at 6:54 am)
Average temperature yesterday: 52 °F

High & Low Weather Summary for the Past Weeks

 TemperatureHumidityPressure
High67 °F (Oct 16, 2:54 pm)88% (Oct 2, 11:09 am)30.51 "Hg (Oct 2, 11:09 am)
Low13 °F (Oct 10, 3:54 am)7% (Oct 7, 3:54 pm)29.50 "Hg (Oct 9, 9:54 am)
Average41 °F35%30.09 "Hg
* Reported Oct 2 10:42 am — Oct 17 10:54 am, Utah Field House of Natural History. Weather by CustomWeather, © 2019

Note: Actual official high and low records may vary slightly from our data, if they occured in-between our weather recording intervals... More about our weather records

Advertising

Utah Field House of Natural History Weather History for the Previous 24 Hours

Scroll right to see more
 ConditionsComfort  
Time TempWeatherWind HumidityBarometerVisibility
10:54 am
Thu, Oct 17
60 °FSunny.22 mph15%29.69 "Hg10 mi
9:54 am52 °FSunny.10 mph20%29.74 "Hg10 mi
7:54 am47 °FSunny.10 mph22%29.75 "Hg10 mi
6:54 am45 °FClear.3 mph23%29.77 "Hg10 mi
5:54 am46 °FClear.9 mph22%29.75 "Hg10 mi
4:54 am44 °FClear.10 mph24%29.78 "Hg10 mi
3:54 am45 °FClear.7 mph23%29.80 "Hg10 mi
2:54 am46 °FClear.7 mph21%29.83 "Hg10 mi
1:54 am47 °FClear.6 mph21%29.84 "Hg10 mi
12:54 am50 °FClear.3 mph18%29.87 "Hg10 mi
11:54 pm
Wed, Oct 16
47 °FClear.5 mph21%29.92 "Hg10 mi
10:54 pm49 °FClear.7 mph19%29.93 "Hg10 mi
9:54 pm51 °FClear.9 mph17%29.97 "Hg10 mi
8:54 pm52 °FClear.12 mph17%30.01 "Hg10 mi
7:54 pm54 °FClear.7 mph16%30.01 "Hg10 mi
6:54 pm58 °FClear.6 mph14%30.00 "Hg10 mi
5:54 pm63 °FSunny.8 mph12%29.96 "Hg10 mi
4:54 pm66 °FSunny.10 mph10%29.98 "Hg10 mi
3:54 pm67 °FSunny.12 mph9%29.99 "Hg10 mi
2:54 pm67 °FSunny.13 mph9%30.01 "Hg10 mi
1:54 pm66 °FSunny.16 mph10%30.04 "Hg10 mi
12:54 pm63 °FSunny.16 mph12%30.10 "Hg10 mi
Weather by CustomWeather, © 2019

See weather overview